sat.trackr.live / text

‹ back to catalog

STARLINK-37301

NORAD 68954 · 2026-099D

PAYLOAD ACTIVE UNKNOWN

§ Identity

Operator
Country
US
Launch date
2026-05-01
Launch site
AFETR
Launch vehicle
Mass (kg)
RCS (m²)

Purposes: comms

External: N2YO · Heavens-Above · Gunter

§ Orbital elements

Epoch: 2026-05-25T04:00:03.998880Z

Period
92.95 min
Inclination
53.1592°
Eccentricity
0.0000987
Mean motion
15.49249534 rev/d
Perigee alt
418.2 km
Apogee alt
419.6 km
Semi-major
6,797.1 km
B*
1.4833e-3
RAAN
270.6925°
Arg perigee
52.8629°
Mean anomaly
294.2956°
Rev number
496

§ Raw data

STARLINK-373011 68954U 26099D   26145.16671295  .00082752  00000+0  14833-2 0  99972 68954  53.1592 270.6925 0000987  52.8629 294.2956 15.49249534  4968

JSON: /api/v1/satellites/68954 · /tle

For live sub-satellite position, see the globe view (requires WebGL).

§ Visibility from observer

Set your observer location to see the next 7 days of passes ≥ 10°. The values pass through the URL so the page stays shareable.

No JS? Fill the form by hand. The geolocation button needs JavaScript.